Location: Kvarnån
(66.4000°N, 22.2667°E)
Time: 21:38:24
(UTC+00:00)

Cosmos 2237 Rocket - Pass Details

Date: 15 October 2024
Orbit: 833 x 850 km, 71.0° (Epoch: 06 November)

Event Time Altitude Azimuth Distance (km) Brightness Sun altitude
Rises 16:43:10 0° 280° (W) 3,397 7.4 -10.8°
Reaches altitude 10° 16:45:41 10° 285° (WNW) 2,464 6.1 -11.0°
Maximum altitude 16:51:14 55° 3° (N) 1,016 2.6 -11.6°
Enters shadow 16:55:51 15° 79° (ENE) 2,130 3.7 -12.1°
